User: anonymous
Location: Mauna Kea VIS
(19.7591°N, 155.4561°W)
Time: 16:18:27
(UTC-10:00)
Language:

Cosmos 1624 Rocket - Orbit

View from above orbital plane
View from above orbital plane
View from above satellite
View from above satellite

Ground track
Ground track

The orbit data is extracted from the following two-line orbital elements,

1 15483U 85006B   14204.05819821  .00000066  00000-0  31832-4 0  2711
2 15483 074.0468 140.4761 0018556 019.3271 109.0661 14.35835257544372
Epoch (UTC): 23 July 2014 01:23:48
Eccentricity: 0.0018556
inclination: 74.0468°
perigee height: 759 km
apogee height: 785 km
right ascension of ascending node: 140.4761°
argument of perigee: 19.3271°
revolutions per day: 14.35835257
mean anomaly at epoch: 109.0661°
orbit number at epoch: 54437

The dashed part of the orbit path shows where the satellite is in the earth's shadow,  

DLR